Lapse_Rate
5.7 5.7 5.9 6.1 6.2 6.3 6.4 6.4 6.5 6.5 6.6 6.7 6.8 6.9 6.9 7.0 7.0 7.1 7.1 7.2 7.3 7.4 7.4 7.4 7.4 7.5 7.5 7.5 7.5 7.8 8.3 8.6 8.4 8.7 8.1 8.1 7.9 8.3 8.0 8.0 7.8 7.6 7.7 7.5 7.5
5.6 5.7 5.8 6.0 6.2 6.3 6.4 6.5 6.5 6.5 6.6 6.6 6.7 6.9 6.9 6.9 6.9 6.9 7.0 7.1 7.2 7.3 7.3 7.3 7.2 7.3 7.1 7.2 7.5 7.8 8.5 8.5 8.3 8.4 8.1 7.9 7.9 8.1 7.8 7.9 7.8 7.5 7.5 7.5 7.3
5.6 5.7 5.9 6.0 6.1 6.3 6.4 6.5 6.5 6.5 6.5 6.5 6.6 6.8 6.9 6.8 6.8 6.8 7.0 7.0 7.0 7.0 7.1 7.1 7.1 7.1 6.9 7.1 7.5 7.9 8.4 7.7 7.7 7.8 8.0 7.7 7.6 7.9 7.8 7.8 7.5 7.5 7.4 7.2 7.1
5.6 5.8 5.9 6.0 6.1 6.3 6.4 6.5 6.5 6.4 6.4 6.5 6.6 6.7 6.8 6.7 6.4 6.9 7.0 7.0 6.9 6.8 6.8 6.9 6.9 6.6 7.1 7.3 7.2 7.5 7.3 7.7 7.7 7.7 7.8 7.6 7.6 7.6 7.7 7.4 7.3 7.4 7.2 7.1 7.1
5.7 5.8 5.9 6.0 6.1 6.1 6.3 6.4 6.5 6.6 6.5 6.4 6.5 6.6 6.7 6.6 6.3 6.8 6.9 6.9 6.8 6.6 6.4 6.4 6.5 6.7 7.1 7.0 7.1 7.6 7.3 7.4 7.4 7.3 7.6 7.5 7.6 7.6 7.4 7.4 7.4 7.2 7.2 7.1 7.0
5.9 6.0 6.0 6.1 6.2 6.1 6.2 6.3 6.4 6.5 6.6 6.5 6.4 6.5 6.6 6.2 6.5 6.7 6.7 6.8 6.8 6.6 6.4 6.3 6.3 6.6 6.8 6.9 7.3 7.0 7.2 7.2 7.2 7.2 7.2 7.4 7.3 7.3 7.2 7.4 7.2 7.1 7.2 7.1 7.0
6.0 6.0 6.1 6.2 6.3 6.3 6.2 6.3 6.4 6.5 6.5 6.6 6.5 6.5 6.4 6.0 6.4 6.4 6.4 6.5 6.5 6.5 6.3 6.5 6.5 6.6 6.8 7.0 7.1 7.0 7.2 7.1 7.2 7.2 7.1 7.3 7.2 7.2 7.2 7.2 7.2 7.2 7.1 7.1 7.1
6.1 6.0 6.2 6.3 6.4 6.5 6.4 6.5 6.5 6.5 6.5 6.5 6.5 6.5 6.0 6.3 6.3 6.2 6.1 6.2 6.3 6.5 6.5 6.6 6.6 6.5 6.7 7.0 7.1 7.4 7.6 7.6 7.3 7.2 7.1 7.2 8.0 7.5 7.3 7.3 7.4 7.3 7.1 7.1 7.0
6.2 6.2 6.3 6.3 6.4 6.6 6.6 6.6 6.7 6.7 6.6 6.5 6.5 6.4 5.9 6.3 6.2 6.1 6.0 5.8 6.1 6.3 6.5 6.7 6.6 6.5 6.8 7.2 7.4 7.4 8.3 8.2 7.3 7.1 7.1 7.2 8.6 7.6 7.5 7.4 7.1 7.3 7.3 7.2 7.0
6.3 6.3 6.4 6.5 6.5 6.7 6.7 6.7 6.7 6.8 6.8 6.8 6.7 6.4 6.3 5.9 6.1 6.1 5.8 5.8 5.8 6.1 6.2 6.5 6.5 6.8 7.0 7.4 8.2 8.1 8.2 8.0 8.1 7.4 7.4 7.4 8.0 7.9 7.6 7.4 7.7 7.6 7.5 7.4 7.2
6.2 6.2 6.3 6.5 6.5 6.6 6.7 6.6 6.6 6.7 6.7 6.6 6.7 6.8 6.7 6.5 6.2 6.0 5.9 5.9 5.9 5.9 6.4 6.3 6.9 7.2 7.4 7.4 7.9 8.0 8.0 8.1 7.8 7.3 7.4 7.8 8.0 7.8 7.5 7.1 7.4 7.5 7.9 7.8 7.7
6.3 6.3 6.3 6.4 6.4 6.5 6.6 6.6 6.5 6.5 6.8 6.8 6.7 6.9 6.8 6.6 6.5 6.1 6.1 5.9 5.9 6.4 6.3 6.5 7.2 7.4 7.1 7.0 7.2 7.5 7.8 8.0 7.5 7.2 7.3 7.9 8.2 8.2 7.4 7.5 7.5 7.5 7.4 7.6 7.4
5.9 6.1 6.1 6.2 6.2 6.4 6.4 6.5 6.4 6.4 6.7 6.9 6.9 6.9 6.6 6.6 6.5 6.3 6.4 6.1 6.3 6.6 6.7 7.3 7.4 6.9 6.9 7.0 7.3 7.5 7.8 8.1 8.0 7.2 7.3 7.8 7.9 7.8 7.4 7.4 7.3 7.3 7.4 7.1 7.5
5.7 6.0 6.1 5.9 5.9 6.2 6.4 6.4 6.3 6.3 6.3 6.5 6.8 7.0 6.7 6.4 6.3 6.3 6.3 6.4 6.5 6.8 6.8 7.2 7.1 7.0 7.1 7.3 7.5 7.7 7.4 7.4 7.4 7.5 8.7 7.3 8.8 8.2 7.6 7.4 7.4 7.5 7.7 7.7 7.7
5.4 6.0 6.0 5.9 5.9 6.0 6.2 6.3 6.1 6.3 7.5 6.7 6.5 6.8 6.8 6.3 6.6 6.3 6.4 6.2 6.8 6.8 6.8 7.5 7.2 7.2 7.3 7.6 7.4 7.9 7.2 7.3 7.3 7.5 7.7 7.9 7.9 9.0 7.5 7.5 7.5 7.4 7.3 7.2 7.3
5.2 5.8 5.8 5.7 5.7 5.9 6.0 6.0 5.9 6.3 7.2 6.6 6.5 6.6 6.8 6.4 6.5 6.5 6.5 6.4 6.6 6.7 6.8 7.3 7.1 7.2 7.6 7.3 7.3 7.2 7.2 7.1 7.1 7.7 7.9 8.1 8.1 9.0 8.7 7.7 7.7 7.3 7.6 7.7 7.5
5.4 6.0 5.8 5.5 5.6 5.9 5.9 5.7 5.9 6.7 7.0 6.7 6.8 6.8 6.9 6.9 6.8 6.7 6.7 6.7 6.9 6.9 7.2 7.2 7.2 7.1 7.3 7.3 7.3 7.4 7.5 8.1 8.3 8.4 9.0 7.3 7.6 8.8 7.5 7.2 7.3 6.9 7.4 7.3 7.3
5.6 6.1 6.0 6.0 5.9 6.0 5.9 5.5 6.2 6.7 6.9 6.7 6.7 7.0 7.3 7.2 7.2 7.1 7.2 7.3 7.2 7.4 7.9 8.0 7.7 7.4 7.3 7.8 7.9 7.7 8.0 7.9 7.4 9.4 9.8 7.2 8.0 8.1 7.5 7.4 7.4 7.5 7.3 7.2 6.9
5.8 6.1 6.4 6.4 6.3 6.2 6.0 6.0 6.8 6.9 6.5 6.8 7.2 7.6 7.6 7.2 7.6 7.5 7.4 7.7 7.7 7.4 7.7 8.1 8.5 7.6 7.4 7.5 7.7 7.8 7.7 7.9 8.0 7.7 8.0 9.4 8.0 7.7 7.3 7.2 7.4 7.4 7.2 6.9 6.7
6.3 6.3 6.5 6.6 6.7 6.5 6.0 6.5 6.5 6.5 6.9 7.1 7.8 7.6 8.0 7.6 7.6 7.8 7.9 7.7 7.7 7.7 7.8 8.3 8.4 7.8 7.6 7.6 7.6 7.6 7.8 7.9 7.9 7.7 8.3 9.6 8.3 8.5 7.7 7.6 7.3 7.3 7.1 6.9 7.0
6.8 6.7 6.6 6.6 6.7 6.6 6.4 6.8 6.5 6.2 6.8 6.8 7.2 7.4 7.5 7.5 7.7 7.8 8.2 8.1 8.0 8.3 8.1 8.4 8.3 8.7 8.0 7.9 8.5 7.6 7.7 7.9 8.1 8.3 8.3 8.4 9.5 7.9 8.0 7.8 7.8 7.6 7.4 7.0 7.3
6.8 6.3 6.7 6.6 6.3 6.0 6.4 6.2 6.1 6.1 6.6 6.4 6.6 6.9 7.2 7.2 7.5 7.6 7.7 8.0 8.5 8.5 8.4 8.6 8.5 8.7 8.8 8.6 8.5 8.5 8.5 8.1 8.3 8.4 7.9 8.3 8.1 8.0 7.7 7.6 7.5 7.6 7.3 6.9 7.2
6.5 6.5 6.7 6.5 6.2 6.1 6.1 6.1 6.2 6.0 6.1 6.3 6.5 6.5 6.6 7.1 7.2 7.4 7.5 7.8 8.4 8.6 8.4 8.6 8.5 8.8 9.3 8.2 8.3 8.1 8.3 8.5 8.3 8.2 8.5 7.8 8.2 7.9 7.8 7.7 7.5 7.3 7.2 7.4 7.3
6.2 5.7 6.4 6.4 6.3 6.1 5.8 6.0 5.9 6.2 6.0 6.2 6.3 6.2 6.4 6.8 7.0 7.2 7.5 7.6 8.2 8.4 8.1 8.4 8.5 8.8 8.9 9.4 9.4 8.5 8.6 8.6 8.4 8.6 8.5 8.8 8.1 8.5 7.6 7.5 7.6 7.6 7.4 7.4 7.3
6.2 5.6 5.9 5.1 5.7 5.9 5.9 5.7 6.0 6.0 5.9 6.1 5.8 6.1 6.4 6.6 6.9 7.0 7.1 7.1 7.9 8.3 8.3 8.5 7.7 8.6 8.9 9.2 9.1 9.2 8.7 8.6 8.6 8.7 8.9 8.8 8.8 8.4 7.8 7.2 7.4 7.4 7.4 7.2 6.7
6.0 6.0 5.8 5.6 5.6 5.8 5.4 5.2 5.7 5.6 5.9 5.9 6.0 5.8 6.0 6.3 6.7 6.7 6.5 6.8 7.3 7.9 8.1 7.8 7.9 7.9 7.3 8.1 8.6 8.7 8.6 8.7 8.4 8.7 8.5 8.4 8.2 8.0 7.3 7.2 7.3 7.2 6.8 6.5 6.4
6.0 6.0 5.6 5.1 5.3 5.6 5.3 5.1 5.2 5.8 5.8 5.7 5.8 5.9 5.9 6.1 6.1 6.1 6.0 6.4 7.0 7.4 7.7 7.7 7.6 7.4 6.7 7.5 7.8 8.6 8.9 8.4 8.5 8.3 8.4 8.4 8.4 7.6 7.3 7.0 6.7 6.6 6.4 6.4 6.2
Wind_Speed
23 22 21 20 18 18 17 15 13 12 11 12 12 12 12 12 12 6 7 5 3 10 6 4 7 5 6 4 3 3 7 11 9 15 14 13 11 3 2 9 6 4 8 15 13
23 22 22 21 20 19 18 16 14 12 11 11 11 11 11 11 10 9 7 8 9 9 6 6 7 6 6 4 3 7 8 9 7 7 17 15 9 11 10 11 10 13 15 15 13
23 23 23 23 22 21 20 16 15 13 11 10 10 9 9 10 9 4 9 11 9 8 3 3 4 7 6 4 2 4 4 6 8 7 15 13 7 5 10 10 10 15 16 14 12
25 26 25 25 24 22 21 19 16 12 10 10 9 9 9 7 1 6 11 10 8 6 5 4 7 8 7 8 3 7 6 5 9 10 12 14 9 8 6 9 10 15 15 13 13
25 27 27 27 27 25 23 21 17 12 9 8 8 8 6 7 3 9 13 10 9 6 3 3 8 5 7 6 6 9 7 6 10 13 13 9 10 8 7 8 13 16 13 14 11
26 27 28 29 28 27 25 22 17 12 8 6 6 7 6 8 5 10 11 9 6 6 2 2 2 2 5 5 6 5 9 9 11 12 9 11 9 10 9 13 14 14 14 13 12
26 27 29 30 30 30 28 24 18 9 7 6 5 4 7 4 3 9 9 6 3 1 4 2 2 5 3 8 5 9 11 11 12 13 9 8 11 10 16 15 15 14 14 12 12
28 29 29 31 32 32 30 26 15 5 6 6 5 5 3 4 5 9 10 6 4 2 2 1 2 0 4 3 7 12 12 13 13 13 8 14 15 13 17 17 17 16 14 13 13
29 30 32 32 32 32 31 23 6 1 3 6 5 4 4 7 8 11 11 5 6 5 3 1 4 3 6 11 10 9 12 16 13 16 10 17 11 16 17 18 16 16 16 15 15
28 30 33 34 33 32 31 9 1 3 5 4 2 5 5 8 5 5 7 6 4 9 7 8 6 9 11 12 12 13 12 13 11 16 13 18 16 16 18 19 19 18 17 16 16
28 29 33 34 34 33 14 4 5 6 7 9 2 2 4 2 4 8 7 10 6 7 9 6 9 12 14 15 11 6 10 12 8 5 15 18 18 12 17 19 18 18 18 18 19
29 30 33 35 34 31 7 1 6 5 8 9 13 12 6 2 7 9 9 11 9 11 5 7 11 6 3 7 10 11 12 11 6 6 11 14 17 14 16 21 21 20 19 19 17
29 31 33 37 37 10 4 6 6 5 6 3 6 10 10 12 9 14 14 11 9 11 10 11 6 6 10 10 11 11 11 9 10 7 10 7 14 15 15 17 18 18 17 17 17
29 30 30 40 10 7 2 6 11 4 5 7 5 5 10 11 9 10 13 9 8 10 7 9 7 8 11 13 12 11 6 5 6 10 12 9 13 19 16 17 18 18 17 17 17
30 27 28 18 9 4 6 10 8 3 4 4 5 4 7 15 10 12 12 9 12 10 8 4 9 10 12 12 10 2 5 5 5 9 7 10 8 11 13 15 17 17 17 18 19
33 29 28 4 3 5 9 10 4 6 6 4 5 8 12 18 5 8 12 8 4 7 8 9 1 5 8 5 5 10 7 6 6 8 10 13 10 9 10 9 6 5 10 11 12
37 32 17 5 5 9 9 4 6 6 3 6 4 7 12 12 13 10 15 17 11 11 12 11 13 6 7 9 7 11 8 6 7 7 5 4 6 12 2 1 2 5 7 8 9
38 35 4 7 10 8 5 7 9 3 4 2 2 5 10 10 16 11 14 15 15 11 2 9 12 15 12 14 10 15 8 2 4 3 3 6 6 4 2 2 4 5 7 8 8
37 4 3 5 5 4 7 12 4 6 1 3 5 7 8 8 6 13 13 14 14 15 9 6 7 5 5 7 11 8 10 4 6 5 8 5 4 9 7 6 7 10 10 10 8
8 5 1 3 1 5 8 13 3 1 3 4 8 3 7 7 9 8 13 9 13 11 15 4 4 6 7 7 5 11 10 6 7 4 8 4 4 7 7 7 9 11 11 11 9
5 4 5 5 3 5 9 10 8 3 3 3 4 3 3 2 2 5 3 6 7 11 15 14 8 6 7 11 12 7 11 7 4 3 4 5 4 4 6 3 7 10 11 12 10
4 4 4 3 5 2 7 5 1 7 5 5 4 5 6 3 5 5 5 4 2 3 8 16 8 13 16 3 6 11 12 14 8 8 6 7 8 3 5 5 5 6 2 7 9
5 5 1 3 5 7 3 5 3 7 5 5 6 5 3 5 5 8 7 4 6 4 3 5 9 12 14 6 6 11 14 13 11 6 9 6 5 4 3 3 1 2 7 9 10
4 3 3 3 1 6 5 8 8 3 3 4 3 5 6 10 9 6 8 1 7 4 6 5 11 12 12 15 11 18 17 17 16 11 11 11 14 9 7 6 4 7 10 12 10
3 1 4 2 4 3 4 1 10 7 4 5 5 6 6 6 8 10 7 7 3 3 3 5 9 13 17 17 14 13 17 18 18 17 14 11 9 8 1 3 7 9 11 11 9
4 3 3 3 3 5 4 7 8 5 4 8 8 3 5 7 6 3 5 2 2 3 4 1 9 16 20 22 17 17 17 16 18 15 9 14 10 7 5 8 10 10 10 9 8
0 1 4 3 3 5 5 4 5 3 3 1 2 3 6 1 6 10 7 6 5 4 1 2 7 8 12 16 26 17 15 16 15 10 12 12 7 10 9 10 10 10 9 9 7
Wind_Direction
4 1 358 353 347 342 340 335 323 312 302 300 303 307 311 314 306 212 233 85 141 160 205 212 216 207 212 180 225 256 223 187 180 181 144 159 153 114 123 129 84 76 81 116 138
1 358 355 352 348 343 340 334 328 316 305 297 298 305 309 316 264 232 109 149 153 171 213 211 192 189 183 183 188 247 223 164 163 123 159 167 178 146 162 144 110 110 114 133 147
358 355 353 350 348 345 340 336 328 317 307 298 294 297 301 300 248 105 154 165 172 203 255 230 207 222 183 209 142 183 169 159 169 175 155 159 154 165 188 186 153 152 144 150 155
356 354 350 348 346 343 339 335 329 318 306 296 295 298 300 242 250 106 156 166 182 232 215 178 191 193 181 165 128 133 107 171 152 171 163 163 144 183 209 54 131 137 143 150 158
354 351 346 345 343 341 338 334 325 312 300 291 292 299 261 222 116 115 142 166 194 218 221 172 189 185 172 144 158 136 129 129 153 167 168 145 186 151 164 123 130 136 149 155 150
352 349 344 342 341 339 338 333 323 304 284 272 281 292 250 228 92 143 161 176 212 218 131 259 75 333 120 136 228 127 145 143 156 163 166 191 151 196 136 143 142 152 160 159 156
348 346 342 339 339 338 336 331 323 290 262 235 249 267 250 51 106 165 182 208 181 224 177 103 22 252 176 146 137 148 149 156 180 172 176 202 178 214 152 166 161 170 169 168 172
345 342 339 337 337 336 334 331 324 259 220 221 210 250 254 126 140 174 190 179 189 207 323 304 277 267 268 102 170 189 184 184 177 187 168 211 186 194 164 178 181 181 180 186 185
342 339 336 336 335 335 330 326 2 187 215 181 217 250 185 135 205 188 193 212 170 194 182 152 239 246 186 203 185 197 201 210 161 192 165 210 241 165 179 191 192 192 193 197 193
340 336 333 332 331 332 324 300 65 209 215 233 260 222 204 172 162 176 189 215 179 159 169 210 209 206 217 214 212 191 234 194 209 191 208 205 246 169 187 195 201 200 204 205 211
338 335 331 330 328 328 321 221 220 188 205 269 151 301 164 135 175 199 177 185 189 214 215 195 227 211 202 216 263 244 225 204 196 159 210 227 221 188 196 205 209 206 210 214 216
335 334 331 327 326 320 281 347 50 354 292 245 250 256 241 161 173 173 187 196 202 216 187 205 230 186 164 197 213 209 210 202 145 179 220 223 231 215 193 212 215 215 215 217 217
333 332 332 326 322 305 359 69 353 311 260 239 232 239 210 202 196 175 194 201 211 213 209 257 83 145 193 183 199 206 220 212 244 169 221 251 229 203 219 217 221 229 230 226 223
331 332 334 328 298 342 139 352 329 257 267 152 198 200 194 196 209 189 201 200 204 228 210 247 127 201 204 205 218 203 216 232 213 222 245 210 260 193 203 215 220 226 232 235 226
329 334 332 332 318 294 6 322 321 232 270 109 145 104 169 192 130 180 188 202 216 193 208 170 204 204 208 214 207 48 167 220 235 246 291 213 252 269 186 217 221 225 235 235 229
326 332 333 211 251 308 319 310 218 231 234 146 155 184 173 207 175 136 180 224 262 197 213 261 130 234 239 108 219 136 171 195 230 246 239 240 237 254 200 223 220 221 239 243 232
323 324 317 295 329 332 307 221 212 242 99 147 175 193 197 186 196 186 185 197 202 209 216 206 208 173 183 165 163 203 201 231 221 203 245 104 239 270 103 207 277 196 195 183 186
322 315 193 275 301 298 239 210 227 226 211 54 260 217 200 189 208 200 202 209 215 233 248 220 195 199 186 224 204 208 237 210 270 208 131 173 242 123 143 190 210 203 176 170 184
317 306 233 7 297 225 215 210 224 232 314 241 233 232 181 182 236 201 213 220 204 215 235 215 224 127 200 203 235 171 228 304 248 259 269 252 172 222 193 196 194 193 191 191 188
314 303 215 335 103 234 217 233 225 281 277 241 242 284 209 175 216 207 199 216 228 218 229 216 247 206 157 170 186 240 137 189 215 254 264 178 266 281 170 185 189 200 200 194 149
278 292 65 338 259 221 217 220 222 198 278 265 227 191 134 164 269 211 224 201 205 211 224 237 244 169 174 213 203 175 211 222 287 282 257 296 296 112 198 225 208 215 202 181 178
297 251 62 284 231 224 223 219 131 214 206 232 278 278 262 247 253 257 238 249 21 239 210 222 233 243 222 104 312 247 232 202 220 203 217 275 272 150 214 256 244 267 160 137 152
301 285 164 289 236 206 159 203 223 210 206 215 230 251 218 247 256 232 259 17 346 242 279 177 217 231 225 200 203 230 224 233 239 267 246 203 265 138 164 216 198 232 131 137 140
280 272 172 195 324 294 197 200 191 163 175 225 256 234 230 242 235 263 235 131 15 4 1 336 268 232 241 248 237 204 232 219 218 242 239 245 256 258 190 223 142 130 139 141 131
224 113 347 192 151 237 234 191 205 189 200 212 173 225 238 241 238 240 256 269 182 43 249 101 289 285 264 257 270 241 231 222 223 236 251 268 292 276 32 224 151 143 135 132 119
290 294 179 282 277 237 183 199 216 151 235 186 239 192 226 247 270 321 286 251 252 325 350 217 232 284 296 304 251 242 246 240 224 235 246 262 261 264 105 128 146 147 136 119 98
61 211 277 127 228 241 202 190 178 227 163 268 136 263 227 25 338 310 299 293 290 306 330 242 230 204 240 255 279 249 238 219 218 222 232 250 279 125 158 155 144 137 124 107 92